Regional Weather Roundup
Issued by NWS Nashville, TN

Home | Current Version | Previous Version | Text Only | Print | Product List | Glossary On
Versions: 1 2 3 4 5 6 7 8 9 10 11 12 13 14 15 16 17 18 19 20 21 22 23 24 25 26 27 28 29 30 31 32 33 34 35 36 37 38 39 40 41 42 43 44 45 46 47 48 49 50
000
ASUS44 KOHX 190015
RWROHX
MIDDLE TENNESSEE HOURLY WEATHER ROUNDUP
NATIONAL WEATHER SERVICE NASHVILLE TN
700 PM CDT THU SEP 18 2014

NOTE: "FAIR" INDICATES FEW OR NO CLOUDS BELOW 12,000 FEET WITH
NO SIGNIFICANT WEATHER AND/OR OBSTRUCTIONS TO VISIBILITY.

* THESE REPORTS ARE NOT UNDER NWS QUALITY CONTROL AND MAY NOT
  REPORT WEATHER SUCH AS PRECIPITATION AND FOG.


TNZ005>011-023>034-057-059-062>066-078-080-190100
...NORTHERN MIDDLE TENNESSEE...

CITY           SKY/WX    TMP DP  RH WIND       PRES   REMARKS
CLARKSVILLE    MOCLDY    70  59  68 NE6       29.99R
CROSSVILLE     CLOUDY    68  58  70 NE6       30.04R
GALLATIN         N/A     70  63  78 N3        30.00R
DICKSON        MOCLDY    66  61  82 CALM      30.00R
LEBANON        CLOUDY    70  60  70 CALM      29.98R
NASHVILLE      CLOUDY    72  59  63 NE5       29.99R
WEST NASHVILLE   N/A     70  61  73 CALM      29.99R
PORTLAND       CLOUDY    66  59  77 NE5       29.99R
SMYRNA         CLOUDY    70  61  73 CALM      30.00R
SPARTA         CLEAR     66  63  88 CALM      30.00S
$$
TNZ056-058-060-061-075>077-079-093>097-190100
...SOUTHERN MIDDLE TENNESSEE...

CITY           SKY/WX    TMP DP  RH WIND       PRES   REMARKS
COLUMBIA       CLOUDY    72  61  68 N5        29.97S
FAYETTEVILLE   CLEAR     72  61  68 W3        29.98R
LEWISBURG      CLOUDY    70  61  73 N5        29.98R
MCMINNVILLE    CLEAR     70  63  78 CALM      30.00R
MURFREESBORO   CLOUDY    72  59  63 CALM      29.98R
SHELBYVILLE    CLEAR     72  59  64 NE5       29.99S
TULLAHOMA      CLEAR     70  55  60 NE5       30.00R
WINCHESTER     PTCLDY    72  55  56 CALM      29.99R
$$


...KEY TO REMARKS...
VSB - VISIBILITY IN MILES
WCI - WIND CHILL INDEX
HX  - HEAT INDEX



USA.gov is the U.S. government's official web portal to all federal, state and local government web resources and services.